Satellite: RS-30
Catalog number: 32953
Epoch time:      11083.79505449
Element set:     580
Inclination:      082.5013 deg
RA of node:       215.1763 deg
Eccentricity:    0.0018716
Arg of perigee:   207.6009 deg
Mean anomaly:     152.4076 deg
Mean motion:   12.43011236 rev/day
Decay rate:        1.0e-07 rev/day^2
Epoch rev:           12860
Checksum:              262

Satellite: TACSAT-3
Catalog number: 35001
Epoch time:      11083.85085383
Element set:     542
Inclination:      040.4539 deg
RA of node:       323.8802 deg
Eccentricity:    0.0024742
Arg of perigee:   302.0845 deg
Mean anomaly:     057.7595 deg
Mean motion:   15.45871298 rev/day
Decay rate:     1.2383e-04 rev/day^2
Epoch rev:           10401
Checksum:              287

Satellite: PHARMSAT
Catalog number: 35002
Epoch time:      11083.80707350
Element set:     504
Inclination:      040.4707 deg
RA of node:       321.6299 deg
Eccentricity:    0.0026175
Arg of perigee:   305.0585 deg
Mean anomaly:     054.7801 deg
Mean motion:   15.45937232 rev/day
Decay rate:     1.0579e-04 rev/day^2
Epoch rev:           10403
Checksum:              266

Satellite: HAWKSAT1
Catalog number: 35003
Epoch time:      11083.81281473
Element set:     556
Inclination:      040.4570 deg
RA of node:       302.9316 deg
Eccentricity:    0.0024761
Arg of perigee:   328.4671 deg
Mean anomaly:     031.4741 deg
Mean motion:   15.54885337 rev/day
Decay rate:     3.6672e-04 rev/day^2
Epoch rev:           10424
Checksum:              281

Satellite: CP6
Catalog number: 35004
Epoch time:      11083.83586771
Element set:     560
Inclination:      040.4570 deg
RA of node:       297.6722 deg
Eccentricity:    0.0024368
Arg of perigee:   334.7511 deg
Mean anomaly:     025.2545 deg
Mean motion:   15.57857136 rev/day
Decay rate:     4.5380e-04 rev/day^2
Epoch rev:           10429
Checksum:              303

Satellite: METEOR-M
Catalog number: 35865
Epoch time:      11083.70571022
Element set:     216
Inclination:      098.7159 deg
RA of node:       139.8920 deg
Eccentricity:    0.0001747
Arg of perigee:   290.6060 deg
Mean anomaly:     069.4877 deg
Mean motion:   14.21835499 rev/day
Decay rate:       1.76e-06 rev/day^2
Epoch rev:            7858
Checksum:              325

Satellite: RS-38
Catalog number: 35869
Epoch time:      11083.85670155
Element set:     225
Inclination:      098.7143 deg
RA of node:       140.0812 deg
Eccentricity:    0.0003758
Arg of perigee:   279.3177 deg
Mean anomaly:     080.7563 deg
Mean motion:   14.22003498 rev/day
Decay rate:       1.77e-06 rev/day^2
Epoch rev:            7861
Checksum:              317

/EX


_______________________________________________
Via the Keps mailing list courtesy of AMSAT-NA
http://amsat.org/mailman/listinfo/keps

--- ViaMAIL!/WC v1.60d
 * Origin: Chowdanet (401-724-4410) telnet://chowdanet.com  (1:323/120)